sat.trackr.live / text

‹ back to catalog

STARLINK-5337

NORAD 55284 · 2023-010R

PAYLOAD ACTIVE UNKNOWN

§ Identity

Operator
Country
US
Launch date
2023-01-19
Launch site
AFWTR
Launch vehicle
Mass (kg)
RCS (m²)

Purposes: comms

External: N2YO · Heavens-Above · Gunter

§ Orbital elements

Epoch: 2026-09-20T22:00:03.000096Z

Period
95.83 min
Inclination
69.9987°
Eccentricity
0.0003515
Mean motion
15.02596221 rev/d
Perigee alt
556.5 km
Apogee alt
561.3 km
Semi-major
6,937.0 km
B*
8.9601e-3
RAAN
272.0257°
Arg perigee
322.0212°
Mean anomaly
46.5423°
Rev number
576

§ Raw data

STARLINK-53371 55284U 23010R   26263.91670139  .00121509  00000+0  89601-2 0  99982 55284  69.9987 272.0257 0003515 322.0212  46.5423 15.02596221  5760

JSON: /api/v1/satellites/55284 · /tle

For live sub-satellite position, see the globe view (requires WebGL).

§ Visibility from observer

Set your observer location to see the next 7 days of passes ≥ 10°. The values pass through the URL so the page stays shareable.

No JS? Fill the form by hand. The geolocation button needs JavaScript.